Stations météo

réclame
Mon MeteoGroup
Gela, Italie (16453): Température de l'air & dewpoint: 15.10.2017 05:00:00 - 21.10.2017 05:00:00 (CEST)Gela, Italie (16453): Vitesse du vent: 15.10.2017 05:00:00 - 21.10.2017 05:00:00 (CEST)Gela, Italie (16453): Direction du vent: 15.10.2017 05:00:00 - 21.10.2017 05:00:00 (CEST)Gela, Italie (16453): reduced air pressure: 15.10.2017 05:00:00 - 21.10.2017 05:00:00 (CEST)Gela, Italie (16453): visibility: 15.10.2017 05:00:00 - 21.10.2017 05:00:00 (CEST)Gela, Italie (16453): Ensoleillement: 15.10.2017 05:00:00 - 21.10.2017 05:00:00 (CEST)
Date & Time tt [°C] td [°C] ff [km/h] ff [knt] dd ppp [hPa] vv [km] sd [min]
21.10.2017 05:00:00 - - - - - - - -
21.10.2017 04:00:00 - - - - - - - -
21.10.2017 03:00:00 - - - - - - - -
21.10.2017 02:00:00 - - - - - - - -
21.10.2017 01:00:00 - - - - - - - -
21.10.2017 00:00:00 - - - - - - - -
20.10.2017 23:00:00 - - - - - - - -
20.10.2017 22:00:00 - - - - - - - -
20.10.2017 21:00:00 - - - - - - - -
20.10.2017 20:00:00 22,8 17,3 11 6 SSE 1017,3 10 0
20.10.2017 19:00:00 23,0 17,0 13 7 SW - 10 -
20.10.2017 18:00:00 23,0 17,0 15 8 S - 10 -
20.10.2017 17:00:00 23,0 16,8 11 6 S 1016,9 10 0
20.10.2017 16:00:00 24,0 17,0 11 6 S - 10 -
20.10.2017 15:00:00 24,0 17,0 11 6 SSW - 10 -
20.10.2017 14:00:00 24,6 17,8 11 6 SSW 1017,4 10 60
20.10.2017 13:00:00 24,0 17,0 9 5 N - 10 -
20.10.2017 12:00:00 24,0 17,0 5 3 W - 10 -
20.10.2017 11:00:00 23,6 16,7 5 3 ESE 1018,2 10 60
20.10.2017 10:00:00 23,0 17,0 9 5 E - 10 -
20.10.2017 09:00:00 20,0 16,0 11 6 ENE - 10 -
20.10.2017 08:00:00 19,6 15,7 13 7 ENE 1017,2 10 0
20.10.2017 07:00:00 - - - - - - - -
20.10.2017 06:00:00 - - - - - - - -
20.10.2017 05:00:00 - - - - - - - -
20.10.2017 04:00:00 - - - - - - - -
20.10.2017 03:00:00 - - - - - - - -
20.10.2017 02:00:00 - - - - - - - -
20.10.2017 01:00:00 - - - - - - - -
20.10.2017 00:00:00 - - - - - - - -
19.10.2017 23:00:00 - - - - - - - -
19.10.2017 22:00:00 - - - - - - - -
19.10.2017 21:00:00 - - - - - - - -
19.10.2017 20:00:00 20,8 15,8 9 5 ENE 1017,0 10 0
19.10.2017 19:00:00 22,0 17,0 8 4 E - 10 -
19.10.2017 18:00:00 22,0 17,0 5 3 E - 10 -
19.10.2017 17:00:00 22,0 17,0 5 3 S 1017,0 10 60
19.10.2017 16:00:00 22,0 17,0 9 5 SSE - 10 -
19.10.2017 15:00:00 22,0 16,0 9 5 E - 10 -
19.10.2017 14:00:00 21,8 16,3 4 2 SSW 1018,0 10 0
19.10.2017 13:00:00 21,0 16,0 9 5 SSE - 10 -
19.10.2017 12:00:00 21,0 16,0 4 2 SSW - 10 -
19.10.2017 11:00:00 21,4 15,9 5 3 S 1018,8 10 36
19.10.2017 10:00:00 19,0 15,0 8 4 ENE - 10 -
19.10.2017 09:00:00 18,0 15,0 8 4 ENE - 10 -
19.10.2017 08:00:00 18,0 14,9 8 4 E 1018,0 10 0
19.10.2017 07:00:00 - - - - - - - -
19.10.2017 06:00:00 - - - - - - - -
19.10.2017 05:00:00 - - - - - - - -
19.10.2017 04:00:00 - - - - - - - -
19.10.2017 03:00:00 - - - - - - - -
19.10.2017 02:00:00 - - - - - - - -
19.10.2017 01:00:00 - - - - - - - -
19.10.2017 00:00:00 - - - - - - - -
18.10.2017 23:00:00 - - - - - - - -
18.10.2017 22:00:00 - - - - - - - -
18.10.2017 21:00:00 - - - - - - - -
18.10.2017 20:00:00 21,2 17,8 8 4 W 1018,5 10 0
18.10.2017 19:00:00 22,0 17,0 11 6 W - 10 -
18.10.2017 18:00:00 22,0 17,0 11 6 W - 10 -
18.10.2017 17:00:00 21,6 17,2 13 7 W 1018,0 10 60
18.10.2017 16:00:00 22,0 17,0 13 7 WSW - 10 -
18.10.2017 15:00:00 22,0 18,0 16 9 WSW - 10 -
18.10.2017 14:00:00 22,0 17,6 15 8 WSW 1019,5 10 60
18.10.2017 13:00:00 22,0 18,0 15 8 WSW - 10 -
18.10.2017 12:00:00 20,0 16,0 9 5 SW - 10 -
18.10.2017 11:00:00 19,8 15,9 5 3 SW 1020,9 10 60
18.10.2017 10:00:00 19,0 16,0 0 0 N - 10 -
18.10.2017 09:00:00 17,0 14,0 4 2 NE - 10 -
18.10.2017 08:00:00 17,4 14,3 4 2 NE 1020,8 10 0
18.10.2017 07:00:00 - - - - - - - -
18.10.2017 06:00:00 - - - - - - - -
18.10.2017 05:00:00 - - - - - - - -
18.10.2017 04:00:00 - - - - - - - -
18.10.2017 03:00:00 - - - - - - - -
18.10.2017 02:00:00 - - - - - - - -
18.10.2017 01:00:00 - - - - - - - -
18.10.2017 00:00:00 - - - - - - - -
17.10.2017 23:00:00 - - - - - - - -
17.10.2017 22:00:00 - - - - - - - -
17.10.2017 21:00:00 - - - - - - - -
17.10.2017 20:00:00 21,4 17,2 4 2 W 1022,7 10 0
17.10.2017 19:00:00 22,0 17,0 4 2 WSW - 10 -
17.10.2017 18:00:00 22,0 17,0 5 3 WSW - 10 -
17.10.2017 17:00:00 21,8 17,6 8 4 WSW 1022,8 10 60
17.10.2017 16:00:00 22,0 18,0 9 5 WSW - 10 -
17.10.2017 15:00:00 22,0 18,0 9 5 SW - 10 -
17.10.2017 14:00:00 22,4 18,2 11 6 SW 1024,4 10 60
17.10.2017 13:00:00 22,0 18,0 9 5 SSW - 10 -
17.10.2017 12:00:00 23,0 18,0 8 4 SW - 10 -
17.10.2017 11:00:00 22,2 18,2 5 3 SSW 1025,4 10 60
17.10.2017 10:00:00 21,0 18,0 5 3 ENE - 10 -
17.10.2017 09:00:00 19,0 16,0 5 3 ENE - 10 -
17.10.2017 08:00:00 19,2 16,4 5 3 ENE 1025,3 10 0
17.10.2017 07:00:00 - - - - - - - -
17.10.2017 06:00:00 - - - - - - - -
17.10.2017 05:00:00 - - - - - - - -
17.10.2017 04:00:00 - - - - - - - -
17.10.2017 03:00:00 - - - - - - - -
17.10.2017 02:00:00 - - - - - - - -
17.10.2017 01:00:00 - - - - - - - -
17.10.2017 00:00:00 - - - - - - - -
16.10.2017 23:00:00 - - - - - - - -
16.10.2017 22:00:00 - - - - - - - -
16.10.2017 21:00:00 - - - - - - - -
16.10.2017 20:00:00 22,0 18,4 4 2 S 1026,2 10 0
16.10.2017 19:00:00 23,0 18,0 4 2 SSW - 10 -
16.10.2017 18:00:00 23,0 19,0 5 3 SW - 10 -
16.10.2017 17:00:00 23,0 18,5 11 6 SSW 1026,1 10 60
16.10.2017 16:00:00 23,0 19,0 13 7 SSW - 10 -
16.10.2017 15:00:00 23,0 19,0 11 6 SE - 10 -
16.10.2017 14:00:00 23,4 18,3 13 7 S 1027,1 10 60
16.10.2017 13:00:00 23,0 18,0 9 5 SSW - 10 -
16.10.2017 12:00:00 23,0 18,0 8 4 SSW - 10 -
16.10.2017 11:00:00 22,2 17,5 8 4 S 1027,1 10 60
16.10.2017 10:00:00 20,0 15,0 4 2 ENE - 10 -
16.10.2017 09:00:00 19,0 13,0 8 4 ENE - 10 -
16.10.2017 08:00:00 18,0 12,5 8 4 ENE 1026,1 10 -
16.10.2017 07:00:00 - - - - - - - -
16.10.2017 06:00:00 - - - - - - - -
16.10.2017 05:00:00 - - - - - - - -
16.10.2017 04:00:00 - - - - - - - -
16.10.2017 03:00:00 - - - - - - - -
16.10.2017 02:00:00 - - - - - - - -
16.10.2017 01:00:00 - - - - - - - -
16.10.2017 00:00:00 - - - - - - - -
15.10.2017 23:00:00 - - - - - - - -
15.10.2017 22:00:00 - - - - - - - -
15.10.2017 21:00:00 - - - - - - - -
15.10.2017 20:00:00 - - - - - - - -
15.10.2017 19:00:00 - - - - - - - -
15.10.2017 18:00:00 - - - - - - - -
15.10.2017 17:00:00 - - - - - - - -
15.10.2017 16:00:00 - - - - - - - -
15.10.2017 15:00:00 - - - - - - - -
15.10.2017 14:00:00 - - - - - - - -
15.10.2017 13:00:00 - - - - - - - -
15.10.2017 12:00:00 - - - - - - - -
15.10.2017 11:00:00 - - - - - - - -
15.10.2017 10:00:00 - - - - - - - -
15.10.2017 09:00:00 - - - - - - - -
15.10.2017 08:00:00 - - - - - - - -
15.10.2017 07:00:00 - - - - - - - -
15.10.2017 06:00:00 - - - - - - - -
15.10.2017 05:00:00 - - - - - - - -

tt = Température de l'air
td = dewpoint
ff = Vitesse du vent
dd = Direction du vent
ppp = reduced air pressure
vv = visibility
sd = Ensoleillement

stations d'obs. à proximité